{"data":{"norad_id":64143,"epoch":"2026-05-24T23:25:51.831840Z","epoch_age_seconds":80304,"freshness":"FRESH","line1":"1 64143U 25111W   26144.97629435  .00021221  00000+0  77832-3 0  9997","line2":"2 64143  43.0009   6.7661 0001460 270.4446  89.6238 15.27585878 57138","mean_motion":15.27585878,"eccentricity":0.000146,"inclination_deg":43.0009,"raan_deg":6.7661,"arg_perigee_deg":270.4446,"mean_anomaly_deg":89.6238,"bstar":0.00077832,"rev_number":5713,"period_min":94.266385984487,"perigee_km":482.02976464919,"apogee_km":484.0332258498,"semimajor_km":6861.1684952495,"source":"CELESTRAK","updated_at":"2026-05-25T13:38:20.300304Z"}}